Terminal Aerodrome Forecast
Issued by NWS Portland, OR

Home | Current Version | Previous Version | Text Only | Print | Product List | Glossary On
Versions: 1 2 3 4 5 6 7 8 9 10 11 12 13 14 15 16 17
000
FTUS46 KPQR 051921 AAA
TAFSLE
TAF AMD
KSLE 051921Z 0519/0618 02009KT P6SM BKN025 BKN050
     FM052000 02009KT P6SM SCT025 BKN040
     FM052100 01011KT P6SM SCT050 BKN120
     FM060400 35007KT P6SM SCT150=

USA.gov is the U.S. government's official web portal to all federal, state and local government web resources and services.